Lid_Strength_Index
0 0 0 -0 -0 -0 -1 -1 -1 0 0 -0 -0 -0 -0 0 1 2 4 3 5 10 11 12 11 12 11 10 11 11 11 11 12 13 14 16 15 15 14 13 13 14 15 15 14 16 17 11 12 11 9 10 9 9
-0 -0 -0 -0 -0 -0 -1 -1 -1 -1 -0 0 0 -0 -0 -0 1 2 4 2 3 8 10 9 10 10 11 12 11 11 11 10 9 12 14 15 16 15 14 16 12 14 11 13 12 13 9 10 9 9 9 9 9 9
-0 -0 -1 -1 -0 -1 -1 -1 -1 -1 -0 0 0 0 1 0 0 2 3 4 4 9 9 10 12 10 9 10 9 10 9 9 11 11 13 13 14 13 14 13 12 12 12 11 12 12 10 11 11 10 10 10 10 10
-0 -0 -1 -0 -1 -1 -1 -1 -1 -1 -0 -0 0 1 1 1 1 2 4 4 5 8 11 11 8 11 9 9 8 9 9 9 10 9 12 12 13 13 13 12 11 11 12 13 12 12 12 11 11 10 10 10 10 10
-0 -0 -1 -1 -1 -1 -1 -1 -1 -1 -0 -0 0 1 1 1 1 3 4 4 4 7 11 11 10 10 9 9 8 8 8 9 10 11 12 14 14 13 14 12 14 13 13 11 11 11 10 11 10 10 10 11 11 11
-0 -1 -1 -1 -1 -1 -1 -1 -0 -0 -1 -0 0 1 2 1 2 4 7 4 4 6 9 13 10 11 11 10 10 10 10 11 11 12 14 14 14 13 13 15 15 15 13 13 12 11 12 12 12 11 11 12 13 13
-1 -1 -1 -1 -0 0 0 0 -0 -0 -0 -0 1 1 1 2 4 6 8 6 4 6 9 12 13 10 11 11 12 12 11 12 11 13 14 14 14 14 15 17 19 19 16 16 15 12 13 13 14 13 13 14 15 16
-1 -0 0 0 1 1 1 1 1 1 0 0 1 1 1 2 4 6 4 3 5 8 9 13 13 12 10 13 13 12 13 12 14 14 13 14 14 15 21 22 22 22 19 18 18 15 14 15 15 16 15 15 17 17
1 1 1 1 1 1 1 0 0 0 0 1 1 2 5 6 9 7 4 4 7 8 13 14 16 16 11 13 12 13 12 16 13 15 15 15 22 29 27 27 27 26 25 24 21 19 18 19 20 20 19 19 18 19
2 2 2 1 2 1 1 0 0 0 1 2 5 9 11 7 4 6 9 9 10 13 12 15 15 15 13 14 14 14 14 16 17 17 14 22 27 27 27 28 28 28 26 26 19 21 22 22 22 24 25 25 23 23
2 2 1 1 1 1 1 1 1 2 3 8 10 9 6 7 9 12 14 14 16 16 15 15 15 14 12 15 16 15 17 16 18 17 16 20 26 28 29 29 29 29 28 28 26 26 26 26 25 25 26 27 27 27
1 1 1 1 2 2 2 1 2 5 7 6 7 9 11 13 15 15 20 19 19 18 18 16 15 14 13 13 15 17 17 17 20 18 18 26 29 30 31 31 30 31 31 30 29 29 29 29 29 29 30 30 30 29
1 2 2 2 1 1 2 1 1 2 4 7 11 15 14 17 19 21 24 21 20 21 19 17 15 15 13 14 17 17 19 20 18 21 28 30 31 32 33 33 32 31 31 31 31 30 30 30 31 32 32 32 31 31
2 2 2 2 2 2 2 3 4 5 10 15 18 21 21 24 24 26 24 23 21 20 20 19 17 15 16 16 18 19 20 19 20 23 29 31 33 33 33 33 33 34 33 33 33 32 32 31 32 33 34 34 33 32
2 2 3 3 3 3 4 6 8 16 19 23 21 25 24 23 24 24 25 24 22 23 20 18 17 14 18 17 19 19 19 25 27 27 31 32 33 33 33 33 33 34 34 34 34 34 33 32 32 32 33 34 34 33
3 5 5 3 5 5 6 10 16 19 25 25 29 22 23 22 21 24 26 24 24 25 23 20 19 18 20 21 21 26 22 25 29 32 32 31 32 33 33 33 33 33 33 33 33 33 32 33 33 33 32 34 34 34
5 10 4 4 5 8 8 16 19 26 26 26 26 30 30 28 26 26 27 26 25 25 20 20 20 21 20 22 26 31 29 31 32 31 31 32 33 33 34 33 33 34 33 33 33 33 33 32 32 32 32 33 33 33
11 9 5 5 9 12 19 20 22 23 26 25 24 26 28 27 28 27 28 27 28 26 22 23 22 28 30 26 27 31 32 32 32 32 31 32 32 32 33 34 34 34 34 34 34 34 33 33 32 33 34 34 32 31
7 8 6 7 10 18 21 22 22 26 26 26 24 24 26 26 26 27 29 29 30 30 27 29 32 33 33 33 33 33 33 34 34 34 33 33 32 33 33 33 33 33 34 33 33 33 33 33 33 33 33 32 32 31
7 7 7 9 12 19 22 24 23 22 24 24 25 26 27 26 29 30 30 30 30 31 34 34 35 35 35 33 33 34 34 34 35 36 32 31 32 33 33 34 33 34 33 32 32 31 31 30 30 31 31 31 31 30
11 11 10 16 20 23 27 27 26 27 27 26 32 29 27 29 30 32 30 29 30 33 32 33 33 31 31 32 33 35 34 34 34 34 34 34 31 32 32 32 34 34 34 33 33 31 32 31 31 31 31 30 30 30
16 11 19 16 20 23 26 26 26 27 26 31 28 30 31 30 32 31 31 29 31 30 32 32 32 33 34 35 35 36 35 37 36 34 33 33 34 32 32 33 34 33 33 32 32 32 31 31 31 31 31 30 30 29
16 17 21 21 21 23 28 26 27 30 26 28 29 27 30 32 31 28 32 35 33 32 36 36 37 42 37 38 41 38 40 38 35 34 34 34 34 34 35 34 34 34 32 30 31 30 31 31 31 31 30 30 29 29
20 28 29 30 28 32 30 30 29 30 31 32 31 31 31 34 31 28 31 33 30 35 36 37 39 32 34 38 34 33 33 37 35 35 34 35 34 31 32 32 32 32 32 30 31 31 31 31 31 31 31 31 31 31
23 33 31 33 32 31 32 32 33 31 35 38 33 31 32 37 31 32 31 30 33 34 34 39 39 36 34 34 33 33 39 35 32 32 30 33 33 34 32 31 31 30 30 33 33 32 31 32 32 32 31 32 32 31
35 40 35 41 36 34 38 34 38 38 41 34 37 38 41 35 29 30 31 31 33 33 33 33 33 35 34 35 33 32 31 37 38 35 32 34 34 33 31 32 31 29 32 31 31 31 31 31 32 32 32 31 31 32
32 37 41 43 41 41 38 41 42 38 38 36 39 37 34 31 31 28 31 32 30 30 31 32 33 32 31 30 32 32 33 38 33 30 31 33 33 32 31 31 31 28 31 33 33 33 32 31 31 31 31 30 30 31
44 46 38 40 42 48 42 45 41 39 40 42 42 33 31 30 28 28 27 29 34 39 38 37 36 33 33 31 31 33 33 38 38 36 35 32 32 31 32 31 30 25 28 30 31 31 32 32 31 31 31 30 29 28
44 51 48 40 44 42 42 39 39 43 43 46 38 36 34 34 34 36 33 37 44 39 35 31 31 43 37 36 35 34 35 37 35 30 29 26 27 25 31 32 31 31 30 31 29 26 28 30 30 30 30 29 28 28
43 55 43 45 37 34 39 46 46 53 54 50 51 44 41 40 38 41 42 42 37 33 32 35 38 40 33 37 30 31 34 35 34 29 28 25 24 28 33 32 31 30 30 31 30 29 27 26 27 29 30 30 29 28
52 53 45 46 39 45 51 59 61 59 58 57 60 51 44 43 42 38 38 37 35 42 39 32 30 36 36 33 35 34 27 29 32 32 30 27 27 27 26 26 26 26 27 29 30 30 30 30 30 31 31 31 31 30
50 47 42 36 38 51 58 54 54 52 54 52 50 59 49 46 38 30 34 39 40 37 31 32 34 27 28 27 28 28 26 24 25 27 30 28 28 27 27 26 27 27 29 29 29 29 29 30 30 30 30 30 30 30
53 56 54 48 42 40 47 47 45 42 47 47 45 47 47 42 32 27 33 33 27 28 25 25 25 27 29 29 27 26 26 26 26 23 22 22 24 24 24 24 24 25 27 29 29 29 30 30 30 30 30 30 29 29